Regional Weather Roundup
Issued by NWS Midland/Odessa, TX

Home | Current Version | Previous Version | Text Only | Print | Product List | Glossary On
Versions: 1 2 3 4 5 6 7 8 9 10 11 12 13 14 15 16 17 18 19 20 21 22 23 24 25 26 27 28 29 30 31 32 33 34 35 36 37 38 39 40 41 42 43 44 45 46 47 48 49 50
000
ASUS44 KMAF 241410
RWRMAF
MIDLAND AREA WEATHER ROUNDUP
NATIONAL WEATHER SERVICE MIDLAND TX
900 AM CDT SUN JUL 24 2016

...IN SOUTHWEST TEXAS AND SOUTHEAST NEW MEXICO...

CITY           SKY/WX    TMP DP  RH WIND       PRES   REMARKS
ALPINE         SUNNY     81  55  41 S7        30.16R
ANDREWS        FAIR      81  62  52 S10       30.05R
ARTESIA        SUNNY     79  57  47 SE8       30.04R
BIG SPRING     SUNNY     81  66  61 SE14      30.05R
CARLSBAD       SUNNY     81  56  42 SE8       30.02R
DRYDEN           N/A     82  69  64 E12       29.98R
FORT STOCKTON  SUNNY     80  62  54 S15G24    30.01R
GUAD PASS      SUNNY     77  54  44 NE14      30.17R
HOBBS          SUNNY     79  57  47 SE12G17   30.08R
MARFA          SUNNY     77  56  48 VRB3      30.15R
MIDLAND AIRPK  SUNNY     81  64  56 S10       30.04R
MIDLAND INTL   SUNNY     82  66  58 S15       30.03R
ODESSA         SUNNY     82  64  54 SE15      30.04R
PECOS          SUNNY     83  58  41 E10       29.97R
PRESIDIO       FAIR      87  58  36 NE9       29.98R
SEMINOLE       SUNNY     80  58  47 S9        30.08R
SNYDER           N/A     79  64  59 S9        30.04R
WINK           SUNNY     81  61  50 SE15      29.99R
$$
...OTHER STATIONS IN TEXAS...

CITY           SKY/WX    TMP DP  RH WIND       PRES   REMARKS
ABILENE        SUNNY     84  69  60 S14       30.01R
AMARILLO       CLOUDY    81  59  47 SW13      30.08R
AUSTIN         PTSUNNY   83  75  77 S10       29.98R
BROWNSVILLE    SUNNY     86  77  74 S17       29.92R
CORPUS CHRISTI MOSUNNY   81  77  88 S13       29.93S
DALLAS FTW     MOSUNNY   86  71  60 S10       29.96R
DEL RIO        SUNNY     83  71  67 SE13      29.94R
EL PASO        MOSUNNY   81  46  29 N7        30.02R
HOUSTON INT    MOSUNNY   85  76  74 VRB3      29.98R
LUBBOCK        MOSUNNY   82  58  43 S9        30.07R
SAN ANGELO     SUNNY     82  70  66 S10       30.00R
SAN ANTONIO    MOSUNNY   82  74  76 S7        29.98R
WACO           SUNNY     84  74  71 S9        29.98R
WICHITA FALLS  NOT AVBL
$$
...OTHER LOCATIONS IN NEW MEXICO...

CITY           SKY/WX    TMP DP  RH WIND       PRES   REMARKS
ALAMAGORDO     SUNNY     82  41  23 CALM      30.06R
ALBUQUERQUE    MOSUNNY   77  50  38 CALM      30.16R
CANNON AFB     SUNNY     79  56  46 S12       30.12R
CLOVIS         SUNNY     79  55  44 S9        30.13R
HOLLOMAN AFB   NOT AVBL
ROSWELL        SUNNY     81  53  37 SE8       30.05R
RUIDOSO          N/A     72  43  35 CALM      30.29R
SANTA FE       CLOUDY    71  54  54 N8        30.24R
TRUTH OR CONSE SUNNY     80  46  30 NW7       30.09R
TUCUMCARI      SUNNY     82  51  34 W5        30.10R
$$




USA.gov is the U.S. government's official web portal to all federal, state and local government web resources and services.